Regional Weather Roundup
Issued by NWS

Home | Current Version | Previous Version | Graphics & Text | Print | Product List | Glossary Off
Versions: 1 2 3 4 5 6 7 8 9 10 11 12 13 14 15 16 17 18 19 20 21 22 23 24 25 26 27 28 29 30 31 32 33 34 35 36 37 38 39 40 41 42 43 44 45 46 47 48 49 50

000
ASUS43 KLSX 280707
RWRMO

WEATHER SUMMARY FOR MISSOURI
NATIONAL WEATHER SERVICE SPRINGFIELD MO
200 AM CDT SUN AUG 28 2016

NOTE: "FAIR" INDICATES FEW OR NO CLOUDS BELOW 12,000 FEET WITH NO
       SIGNIFICANT WEATHER AND/OR OBSTRUCTIONS TO VISIBILITY.
       CURRENT SKY AND/OR WEATHER CONDITIONS ARE NOT AVAILABLE FOR
       CHILLICOTHE AND FARMINGTON.

MOZ001>031-035>038-043-044-053-054-280800-
...NORTHERN AND WESTERN MISSOURI...

CITY           SKY/WX    TMP DP  RH WIND       PRES   REMARKS
KANSAS CTY INT PTCLDY    73  68  84 SE6       30.08S
KANSAS C DTWN  CLEAR     74  70  87 NE3       30.06S
LEE`S SUMMIT   CLEAR     76  70  82 S6        30.08F
ST JOSEPH      PTCLDY    69  68  96 CALM      30.07S
KIRKSVILLE     CLEAR     72  69  90 CALM      30.11R

$$
MOZ066>068-077>081-088>096-101>105-280800-
...SOUTHWEST MISSOURI...

CITY           SKY/WX    TMP DP  RH WIND       PRES   REMARKS
SPRINGFIELD    PTCLDY    75  70  84 SE7       30.10S
JOPLIN         MOCLDY    75  71  87 MISG      30.07F
BRANSON        CLEAR     72  70  94 CALM      30.12S

$$
MOZ032>034-039>042-045>050-055>058-069>072-280800-
...CENTRAL MISSOURI...

CITY           SKY/WX    TMP DP  RH WIND       PRES   REMARKS
COLUMBIA       CLOUDY    73  72  96 S3        30.09F
JEFFERSON CITY CLOUDY    74  71  91 CALM      30.08S
ROLLA          MOCLDY    74  71  91 S6        30.11S
SEDALIA        CLEAR     73  70  90 SE3       30.10S
WHITEMAN AFB   CLEAR     73  73 100 S6        30.07F
OSAGE BEACH    PTCLDY    72  71  97 CALM      30.10F

$$
MOZ051-052-059>065-280800-
...EAST CENTRAL MISSOURI...

CITY           SKY/WX    TMP DP  RH WIND       PRES   REMARKS
ST LOUIS INTL  MOCLDY    80  72  76 S6        30.10S
SPIRIT OF STL  PTCLDY    74  73  97 CALM      30.09R
ST CHARLES     CLOUDY    74  74 100 CALM      30.09R

$$
MOZ072>076-082>087-097>100-106>115-280800-
...SOUTH CENTRAL AND SOUTHEAST MISSOURI...

CITY           SKY/WX    TMP DP  RH WIND       PRES   REMARKS
CAPE GIRARDEAU CLEAR     73  72  96 CALM      30.09F
FARMINGTON     CLEAR     69  69 100 CALM      30.12F
POPLAR BLUFF   CLEAR     74  72  93 CALM      30.08F
WEST PLAINS    CLEAR     70  67  90 CALM      30.14S

$$



USA.gov is the U.S. government's official web portal to all federal, state and local government web resources and services.